This is the latest recevied weather packets stored in our database for station/object KB4MOX. If no packets are shown the sender has not sent any weather packets the latest 10 day(s).
| Time | Temp. | Humidity | Pressure | Rain* | Wind** | Luminosity | Snow |
|---|---|---|---|---|---|---|---|
| 1787551687 | 22.22° C | 77% | 1015.1 hPa | 0 mm | - | 0 W/m² | - |
| 1787551381 | 22.22° C | 77% | 1015.2 hPa | 0 mm | - | 0 W/m² | - |
| 1787551076 | 22.22° C | 79% | 1015.2 hPa | 0 mm | - | 0 W/m² | - |
| 1787550771 | 22.22° C | 80% | 1015.4 hPa | 0 mm | - | 0 W/m² | - |
| 1787550467 | 22.22° C | 80% | 1015.6 hPa | 0 mm | - | 0 W/m² | - |
| 1787550163 | 22.78° C | 79% | 1015.2 hPa | 0 mm | - | 0 W/m² | - |
| 1787549858 | 22.78° C | 79% | 1015.3 hPa | 0 mm | - | 0 W/m² | - |
| 1787549553 | 22.78° C | 77% | 1015.4 hPa | 0 mm | - | 0 W/m² | - |
| 1787549248 | 22.78° C | 77% | 1015.5 hPa | 0 mm | - | 0 W/m² | - |
| 1787548944 | 23.33° C | 76% | 1015.5 hPa | 0 mm | - | 0 W/m² | - |
| 1787548640 | 23.33° C | 75% | 1015.3 hPa | 0 mm | - | 0 W/m² | - |
| 1787548336 | 23.33° C | 75% | 1015.5 hPa | 0 mm | - | 0 W/m² | - |
| 1787548032 | 23.33° C | 74% | 1015.6 hPa | 0 mm | - | 0 W/m² | - |
| 1787547726 | 23.89° C | 74% | 1015.4 hPa | 0 mm | - | 0 W/m² | - |
| 1787547421 | 23.89° C | 72% | 1015.4 hPa | 0 mm | - | 0 W/m² | - |
| 1787547116 | 23.89° C | 72% | 1015.4 hPa | 0 mm | - | 0 W/m² | - |
| 1787546811 | 24.44° C | 74% | 1015.5 hPa | 0 mm | - | 0 W/m² | - |
| 1787546508 | 24.44° C | 71% | 1015.4 hPa | 0 mm | - | 0 W/m² | - |
| 1787546204 | 24.44° C | 70% | 1015.4 hPa | 0 mm | - | 0 W/m² | - |
| 1787545899 | 24.44° C | 72% | 1015.5 hPa | 0 mm | - | 0 W/m² | - |
| 1787545595 | 24.44° C | 71% | 1015.5 hPa | 0 mm | - | 0 W/m² | - |
| 1787545291 | 24.44° C | 71% | 1015.4 hPa | 0 mm | - | 0 W/m² | - |
| 1787544987 | 24.44° C | 71% | 1015.6 hPa | 0 mm | - | 0 W/m² | - |
| 1787544684 | 24.44° C | 75% | 1015.4 hPa | 0 mm | - | 0 W/m² | - |
| 1787544380 | 23.89° C | 74% | 1015.5 hPa | 0 mm | - | 0 W/m² | - |
* Rain latest hour (hover to see other rain measurements)
** Current wind speed in m/s (hover to see current wind gust speed)